Location: Observatory Park - Geauga Park District
(41.5832°N, 81.0716°W)
Time: 02:38:52
(UTC-04:00)

Tiangong - Pass Details

Date: 29 September 2021
Orbit: 382 x 385 km, 41.5° (Epoch: 16 October)

Event Time Altitude Azimuth Distance (km) Brightness Sun altitude
Exits shadow 06:20:16 20° 253° (WSW) 935 2.4 -11.8°
Maximum altitude 06:22:15 76° 170° (S) 395 1.1 -11.5°
Drops below altitude 10° 06:25:24 10° 85° (E) 1,393 5.5 -10.9°
Sets 06:27:28 0° 83° (E) 2,246 7.3 -10.5°
